Location: Newark
(25.0000°N, 73.5000°E)
Time: 00:43:08
(UTC+00:00)

Altair - All Passes

Search period start: 31 July 2021 00:00
Search period end: 10 August 2021 00:00
Orbit: 1502 x 1682 km, 47.2° (Epoch: 30 July)

Date Brightness Start Highest point End Pass type
(mag) Time Alt. Az. Time Alt. Az. Time Alt. Az.
31 Jul - 00:37:54 10° NNW 00:43:47 18° N 00:49:38 10° NE daylight
31 Jul - 02:42:33 10° NW 02:51:01 39° NNE 02:59:33 10° E daylight
31 Jul - 04:46:55 10° NW 04:55:56 62° SW 05:05:13 10° SSE daylight
31 Jul - 06:58:38 10° WSW 06:59:44 10° SW 07:00:49 10° SW daylight
31 Jul - 17:51:25 10° S 17:59:42 32° SE 18:07:42 10° ENE visible
31 Jul - 19:54:26 10° WSW 20:04:00 67° NW 20:13:16 10° NE visible
31 Jul - 22:03:00 10° WNW 22:10:10 24° NNW 22:17:14 10° NNE visible
01 Aug - 00:12:34 10° NNW 00:18:20 18° N 00:24:05 10° NE visible
01 Aug - 02:17:27 10° NNW 02:25:45 36° NNE 02:34:05 10° E daylight
01 Aug - 04:21:42 10° NW 04:30:48 68° SW 04:40:08 10° SSE daylight
01 Aug - 06:31:13 10° WSW 06:34:37 12° SW 06:38:03 10° SW daylight
01 Aug - 17:26:38 10° S 17:34:34 29° SE 17:42:16 10° ENE visible
01 Aug - 19:29:08 10° SW 19:38:49 73° NW 19:48:08 10° NE visible
01 Aug - 21:37:23 10° WNW 21:44:48 25° NNW 21:52:06 10° NNE visible
01 Aug - 23:47:12 10° NW 23:52:54 17° N 23:58:34 10° NE visible
02 Aug - 01:52:20 10° NNW 02:00:27 34° NNE 02:08:36 10° E daylight
02 Aug - 03:56:30 10° NW 04:05:40 75° SW 04:15:02 10° SE daylight
02 Aug - 06:04:57 10° W 06:09:30 15° SW 06:14:09 10° SSW daylight
02 Aug - 17:01:55 10° S 17:09:27 25° SE 17:16:46 10° ENE visible
02 Aug - 19:03:52 10° SW 19:13:37 80° NW 19:23:00 10° NE visible
02 Aug - 21:11:46 10° W 21:19:27 27° NNW 21:26:58 10° NNE visible
02 Aug - 23:21:48 10° NW 23:27:28 17° N 23:33:04 10° NE visible
03 Aug - 01:27:14 10° NNW 01:35:10 31° NNE 01:43:06 10° E daylight
03 Aug - 03:31:19 10° NW 03:40:31 82° SW 03:49:54 10° SE daylight
03 Aug - 05:39:00 10° W 05:44:24 17° SW 05:49:55 10° SSW daylight
03 Aug - 16:37:16 10° S 16:44:19 22° SE 16:51:12 10° E night (unlit)
03 Aug - 18:38:38 10° SW 18:48:26 86° NW 18:57:51 10° NE visible
03 Aug - 20:46:11 10° W 20:54:07 29° NNW 21:01:51 10° NNE visible
03 Aug - 22:56:21 10° NW 23:02:01 17° N 23:07:37 10° NE visible
04 Aug - 01:02:06 10° NNW 01:09:51 29° NNE 01:17:35 10° E daylight
04 Aug - 03:06:09 10° NW 03:15:22 89° SW 03:24:44 10° SE daylight
04 Aug - 05:13:13 10° W 05:19:18 20° SW 05:25:30 10° SSW daylight
04 Aug - 16:12:43 10° SSE 16:19:12 20° SE 16:25:31 10° E night (unlit)
04 Aug - 18:13:25 10° SW 18:23:15 87° SE 18:32:42 10° NE visible
04 Aug - 20:20:37 10° W 20:28:46 31° NNW 20:36:44 10° NNE visible
04 Aug - 22:30:53 10° NW 22:36:34 17° N 22:42:12 10° NE visible
05 Aug - 00:36:58 10° NNW 00:44:31 27° NNE 00:52:03 10° E daylight
05 Aug - 02:41:01 10° NW 02:50:12 84° NE 02:59:33 10° SE daylight
05 Aug - 04:47:35 10° W 04:54:12 22° SW 05:00:57 10° S daylight
05 Aug - 15:48:18 10° SSE 15:54:05 17° SE 15:59:44 10° E night (unlit)
05 Aug - 17:48:14 10° SW 17:58:04 80° SE 18:07:32 10° NE visible
05 Aug - 19:55:03 10° W 20:03:27 33° NNW 20:11:39 10° NNE visible
05 Aug - 22:05:21 10° NW 22:11:07 17° N 22:16:49 10° NE visible
06 Aug - 00:11:49 10° NNW 00:19:11 26° NNE 00:26:30 10° ENE visible
06 Aug - 02:15:52 10° NW 02:25:03 77° NE 02:34:20 10° SE daylight
06 Aug - 04:22:02 10° WNW 04:29:06 25° SW 04:36:19 10° S daylight
06 Aug - 15:24:03 10° SSE 15:28:57 15° SE 15:33:45 10° E visible
06 Aug - 17:23:05 10° SW 17:32:54 73° SE 17:42:20 10° NE visible
06 Aug - 19:29:31 10° W 19:38:08 36° NNW 19:46:33 10° NNE visible
06 Aug - 21:39:48 10° NW 21:45:40 18° N 21:51:28 10° NE visible
06 Aug - 23:46:40 10° NNW 23:53:49 24° NNE 00:00:56 10° ENE visible
07 Aug - 01:50:43 10° NW 01:59:52 70° NE 02:09:05 10° SE daylight
07 Aug - 03:56:32 10° WNW 04:04:00 29° SW 04:11:37 10° S daylight
07 Aug - 15:00:08 10° SSE 15:03:49 13° SE 15:07:27 10° ESE visible
07 Aug - 16:57:58 10° SSW 17:07:45 67° SE 17:17:08 10° NE visible
07 Aug - 19:04:01 10° W 19:12:51 38° NNW 19:21:26 10° NE visible
07 Aug - 21:14:12 10° NW 21:20:14 18° N 21:26:10 10° NNE visible
07 Aug - 23:21:29 10° NNW 23:28:27 23° NNE 23:35:22 10° ENE visible
08 Aug - 01:25:35 10° NW 01:34:41 64° NE 01:43:49 10° ESE daylight
08 Aug - 03:31:06 10° WNW 03:38:54 32° SW 03:46:50 10° S daylight
08 Aug - 14:37:12 10° SE 14:38:42 10° ESE 14:40:11 10° ESE visible
08 Aug - 16:32:52 10° SSW 16:42:34 60° SE 16:51:55 10° NE visible
08 Aug - 18:38:31 10° WSW 18:47:34 42° NNW 18:56:20 10° NE visible
08 Aug - 20:48:36 10° NW 20:54:47 19° N 21:00:53 10° NNE visible
08 Aug - 22:56:17 10° NNW 23:03:05 22° NNE 23:09:47 10° ENE visible
09 Aug - 01:00:27 10° NW 01:09:30 59° NE 01:18:32 10° ESE daylight
09 Aug - 03:05:43 10° WNW 03:13:48 36° SW 03:22:02 10° S daylight
09 Aug - 16:07:49 10° SSW 16:17:25 55° SE 16:26:40 10° ENE visible
09 Aug - 18:13:03 10° WSW 18:22:17 45° NW 18:31:14 10° NE visible
09 Aug - 20:22:58 10° NW 20:29:21 19° NNW 20:35:37 10° NNE visible
09 Aug - 22:31:04 10° NNW 22:37:41 21° NNE 22:44:12 10° ENE visible
